Weather History for KITH - August, 2014

Change the Weather History Date:

Friday, August 22, 2014

  Actual Average Record
Temperature  
Mean Temperature 70 °F -  
Max Temperature 77 °F 74 °F 92 °F (1936)
Min Temperature 62 °F 51 °F 38 °F (1982)
Cooling Degree Days 4    
Growing Degree Days 20 (Base 50)    
Moisture  
Dew Point 65 °F    
Average Humidity 93    
Maximum Humidity 100    
Minimum Humidity 65    
Precipitation  
Precipitation 0.26 in - - ()
Sea Level Pressure  
Sea Level Pressure 30.01 in    
Wind  
Wind Speed 2 mph (ESE)    
Max Wind Speed 9 mph    
Max Gust Speed -    
Visibility 7 miles    
Events Fog , Rain    
Averages and records for this station are not official NWS values.
T = Trace of Precipitation, MM = Missing Value Source: NWS Daily Summary

Daily Weather History Graph

Daily Weather History Graph

Search for Another Location

Airport or City:

Trip Planner

Search our weather history database for the weather conditions in past years. The results will help you decide how hot, cold, wet, or windy it might be!

Date:

Astronomy

Aug. 22, 2014 Rise Set
Actual Time 6:20 AM EDT 7:56 PM EDT
Civil Twilight 5:50 AM EDT 8:26 PM EDT
Nautical Twilight 5:14 AM EDT 9:01 PM EDT
Astronomical Twilight 4:35 AM EDT 9:40 PM EDT
Moon 3:39 AM EDT (8/22) 6:04 PM EDT (8/22)
Length of Visible Light 14h 35m
Length of Day
13h 36m
Waning Crescent, 8% of the Moon is Illuminated
Aug 22
Waning Crescent
Aug 25
New
Sep 2
First Quarter
Sep 8
Full
Sep 15
Last Quarter

Hourly Weather History & Observations

Time (EDT) Temp. Dew Point Humidity Pressure Visibility Wind Dir Wind Speed Gust Speed Precip Events Conditions
12:11 AM 64.4 °F 64.4 °F 100% 30.01 in 10.0 mi Calm Calm - N/A   Mostly Cloudy
12:56 AM 65.8 °F 64.9 °F 97% 30.00 in 10.0 mi Calm Calm - N/A   Overcast
2:56 AM 65.8 °F 64.9 °F 97% 29.99 in 7.0 mi Calm Calm - N/A   Overcast
3:12 AM 64.4 °F 64.4 °F 100% 30.01 in 2.0 mi Calm Calm - N/A   Scattered Clouds
3:25 AM 64.4 °F 64.4 °F 100% 30.00 in 6.0 mi Calm Calm - N/A   Partly Cloudy
3:46 AM 62.6 °F 62.6 °F 100% 30.01 in 1.8 mi Calm Calm - N/A   Clear
3:56 AM 63.0 °F 63.0 °F 100% 30.00 in 4.0 mi Calm Calm - N/A   Clear
4:03 AM 62.6 °F 62.6 °F 100% 30.01 in 1.2 mi Calm Calm - N/A   Mostly Cloudy
4:07 AM 62.6 °F 62.6 °F 100% 30.01 in 0.8 mi Calm Calm - N/A   Mostly Cloudy
4:16 AM 62.6 °F 62.6 °F 100% 30.01 in 1.0 mi Calm Calm - N/A   Mostly Cloudy
4:19 AM 62.6 °F 62.6 °F 100% 30.01 in 1.5 mi Calm Calm - N/A   Mostly Cloudy
4:24 AM 62.6 °F 62.6 °F 100% 30.01 in 3.0 mi Calm Calm - N/A   Mostly Cloudy
4:56 AM 63.0 °F 61.9 °F 96% 29.99 in 2.5 mi East 3.5 mph - N/A   Clear
5:06 AM 62.6 °F 62.6 °F 100% 30.01 in 1.8 mi Calm Calm - N/A   Mostly Cloudy
5:10 AM 62.6 °F 62.6 °F 100% 30.00 in 1.2 mi Calm Calm - N/A   Mostly Cloudy
5:15 AM 62.6 °F 62.6 °F 100% 30.01 in 0.8 mi Calm Calm - N/A   Mostly Cloudy
5:31 AM 62.6 °F 62.6 °F 100% 30.00 in 1.2 mi East 3.5 mph - N/A   Mostly Cloudy
5:34 AM 62.6 °F 62.6 °F 100% 30.00 in 2.0 mi East 4.6 mph - N/A   Overcast
5:42 AM 62.6 °F 62.6 °F 100% 30.00 in 7.0 mi East 3.5 mph - N/A   Overcast
5:56 AM 63.0 °F 63.0 °F 100% 29.99 in 8.0 mi East 4.6 mph - N/A   Scattered Clouds
6:30 AM 62.6 °F 62.6 °F 100% 30.01 in 10.0 mi East 4.6 mph - N/A Fog Mostly Cloudy
6:56 AM 63.0 °F 63.0 °F 100% 30.00 in 10.0 mi East 4.6 mph - N/A Fog Patches of Fog
7:56 AM 63.9 °F 63.9 °F 100% 30.01 in 7.0 mi East 3.5 mph - N/A Fog Patches of Fog
8:56 AM 66.9 °F 64.9 °F 93% 30.02 in 10.0 mi Calm Calm - N/A   Mostly Cloudy
9:56 AM 70.9 °F 65.8 °F 84% 30.03 in 10.0 mi Calm Calm - N/A   Mostly Cloudy
10:56 AM 75.9 °F 66.9 °F 74% 30.03 in 10.0 mi Calm Calm - N/A   Mostly Cloudy
11:56 AM 77.0 °F 66.9 °F 71% 30.01 in 10.0 mi SSE 6.9 mph - N/A   Mostly Cloudy
12:56 PM 77.0 °F 66.9 °F 71% 30.00 in 10.0 mi South 6.9 mph - N/A   Mostly Cloudy
1:56 PM 77.9 °F 66.9 °F 69% 29.99 in 10.0 mi South 6.9 mph - N/A   Mostly Cloudy
2:56 PM 77.9 °F 65.8 °F 66% 29.98 in 10.0 mi SW 5.8 mph - N/A   Mostly Cloudy
3:22 PM 77.0 °F 64.4 °F 65% 30.00 in 10.0 mi WSW 6.9 mph - N/A   Overcast
3:56 PM 68.9 °F 66.9 °F 93% 30.00 in 4.0 mi SSW 3.5 mph - 0.26 in Rain Light Rain
4:41 PM 69.8 °F 68.0 °F 94% 30.01 in 10.0 mi East 5.8 mph - 0.00 in Rain Light Rain
4:56 PM 70.0 °F 68.0 °F 93% 29.99 in 10.0 mi ENE 5.8 mph - 0.00 in   Overcast
5:56 PM 70.9 °F 68.0 °F 91% 29.99 in 10.0 mi East 4.6 mph - N/A   Mostly Cloudy
6:56 PM 70.9 °F 68.0 °F 91% 30.01 in 10.0 mi ENE 4.6 mph - N/A   Mostly Cloudy
7:56 PM 68.9 °F 66.9 °F 93% 30.01 in 10.0 mi Calm Calm - N/A   Mostly Cloudy
8:56 PM 68.9 °F 66.9 °F 93% 30.02 in 10.0 mi East 3.5 mph - N/A   Mostly Cloudy
9:56 PM 68.0 °F 65.8 °F 93% 30.03 in 10.0 mi SE 4.6 mph - N/A   Mostly Cloudy
10:56 PM 68.0 °F 64.9 °F 90% 30.02 in 10.0 mi SSE 9.2 mph - N/A   Overcast
11:30 PM 68.0 °F 64.4 °F 88% 30.05 in 10.0 mi SE 3.5 mph - N/A   Overcast
11:40 PM 68.0 °F 64.4 °F 88% 30.05 in 10.0 mi ESE 3.5 mph - N/A   Overcast
11:56 PM 68.0 °F 64.9 °F 90% 30.03 in 10.0 mi SE 4.6 mph - N/A   Overcast